Weather History for Sacramento International, CA

Change the Weather History Date:

Tuesday, August 13, 2013

  Actual Average Record
Temperature  
Mean Temperature 74 °F -  
Max Temperature 93 °F 89 °F 109 °F (1996)
Min Temperature 54 °F 57 °F 52 °F (1952)
Cooling Degree Days 8    
Growing Degree Days 24 (Base 50)    
Moisture  
Dew Point 51 °F    
Average Humidity 48    
Maximum Humidity 93    
Minimum Humidity 19    
Precipitation  
Precipitation 0.00 in - - ()
Sea Level Pressure  
Sea Level Pressure 29.90 in    
Wind  
Wind Speed 7 mph (SSE)    
Max Wind Speed 10 mph    
Max Gust Speed -    
Visibility 10 miles    
Events      
Averages and records for this station are not official NWS values.
T = Trace of Precipitation, MM = Missing Value Source: NWS Daily Summary

Daily Weather History Graph

Daily Weather History Graph

Search for Another Location

Airport:

Trip Planner

Search our weather history database for the weather conditions in past years. The results will help you decide how hot, cold, wet, or windy it might be!

Date:

Astronomy

Aug. 13, 2013 Rise Set
Actual Time 6:18 AM PDT 8:02 PM PDT
Civil Twilight 5:50 AM PDT 8:31 PM PDT
Nautical Twilight 5:15 AM PDT 9:05 PM PDT
Astronomical Twilight 4:38 AM PDT 9:42 PM PDT
Moon 1:14 PM PDT (8/13) 11:47 PM PDT (8/13)
Length of Visible Light 14h 40m
Length of Day
13h 44m
Waxing Crescent, 43% of the Moon is Illuminated
Aug 13
Waxing Crescent
Aug 14
First Quarter
Aug 20
Full
Aug 28
Last Quarter
Sep 5
New

Hourly Weather History & Observations

Time (PDT) Temp. Heat Index Dew Point Humidity Pressure Visibility Wind Dir Wind Speed Gust Speed Precip Events Conditions
12:53 AM 64.0 °F - 51.1 °F 63% 29.91 in 10.0 mi SE 9.2 mph - N/A   Clear
1:53 AM 63.0 °F - 52.0 °F 67% 29.91 in 10.0 mi SSE 10.4 mph - N/A   Clear
2:53 AM 62.1 °F - 52.0 °F 70% 29.92 in 10.0 mi South 6.9 mph - N/A   Clear
3:53 AM 62.1 °F - 53.1 °F 72% 29.92 in 10.0 mi SSE 5.8 mph - N/A   Clear
4:53 AM 59.0 °F - 52.0 °F 78% 29.92 in 10.0 mi South 5.8 mph - N/A   Clear
5:53 AM 57.9 °F - 53.1 °F 84% 29.93 in 10.0 mi SE 4.6 mph - N/A   Clear
6:53 AM 54.0 °F - 52.0 °F 93% 29.94 in 10.0 mi North 4.6 mph - N/A   Clear
7:53 AM 63.0 °F - 54.0 °F 72% 29.96 in 10.0 mi NE 5.8 mph - N/A   Clear
8:53 AM 68.0 °F - 54.0 °F 61% 29.97 in 10.0 mi NE 3.5 mph - N/A   Clear
9:53 AM 73.9 °F - 53.1 °F 48% 29.96 in 10.0 mi ENE 3.5 mph - N/A   Clear
10:53 AM 80.1 °F - 51.1 °F 36% 29.96 in 10.0 mi North 6.9 mph - N/A   Clear
11:53 AM 84.0 °F 82.5 °F 53.1 °F 34% 29.95 in 10.0 mi Variable 5.8 mph - N/A   Clear
12:53 PM 88.0 °F - 51.1 °F 28% 29.93 in 10.0 mi NNW 8.1 mph - N/A   Clear
1:53 PM 90.0 °F - 46.9 °F 23% 29.91 in 10.0 mi Variable 5.8 mph - N/A   Clear
2:53 PM 91.9 °F - 48.0 °F 22% 29.89 in 10.0 mi Variable 4.6 mph - N/A   Clear
3:53 PM 93.0 °F - 46.9 °F 20% 29.87 in 10.0 mi Calm Calm - N/A   Clear
4:53 PM 93.9 °F - 46.0 °F 19% 29.86 in 10.0 mi SW 5.8 mph - N/A   Clear
5:53 PM 93.9 °F - 46.9 °F 20% 29.85 in 10.0 mi Calm Calm - N/A   Clear
6:53 PM 93.0 °F - 46.0 °F 20% 29.84 in 10.0 mi South 9.2 mph - N/A   Clear
7:53 PM 88.0 °F - 48.9 °F 26% 29.84 in 10.0 mi South 10.4 mph - N/A   Clear
8:53 PM 81.0 °F 80.5 °F 54.0 °F 39% 29.85 in 10.0 mi South 10.4 mph - N/A   Clear
9:53 PM 75.0 °F - 53.1 °F 46% 29.86 in 10.0 mi South 8.1 mph - N/A   Clear
10:53 PM 72.0 °F - 52.0 °F 49% 29.86 in 10.0 mi South 9.2 mph - N/A   Clear
11:53 PM 69.1 °F - 51.1 °F 53% 29.88 in 10.0 mi SE 9.2 mph - N/A   Clear